Date String (YYYY-MM-DD hh:mm:ss) UTC,Instrument flags,Ambient pressure (hPa),Sample flow (lpm),Bypass flow (lpm),Sample temperature (°C),Ambient temperature (°C),ASC tube jacket temperature (°C),LED temperature (°C),Box temperature (°C),Sample RH (%),Span deviation,Mass concentration (μg/m³),Mass concentration (μg/m³),Mass concentration (μg/m³)
DateTimeUTC,F1_M11,P_M11,Q1_M11,Q2_M11,T1_M11,T2_M11,T3_M11,T4_M11,T5_M11,U1_M11,ZSPAN_M11,X0_M11,X2_M11,X1_M11
2022-03-06 18:00:00,,0825.2,5.00,0.00,22.4,22.0,00.0,31.5,24.1,09.7,0000.0,0003.77,0002.88,0002.62
2022-03-06 18:01:00,,0825.2,4.99,0.00,22.5,22.9,00.0,31.5,24.3,09.6,0000.0,0003.92,0003.00,0002.73
2022-03-06 18:02:00,,0825.2,5.00,0.00,22.7,23.5,00.0,31.6,24.6,09.4,0000.0,0004.07,0003.11,0002.84
2022-03-06 18:03:00,,0825.2,4.99,0.00,22.7,23.2,00.0,31.6,24.6,09.4,0000.0,0004.22,0003.18,0002.92
2022-03-06 18:04:00,,0825.3,5.00,0.00,22.7,22.9,00.0,31.6,24.5,09.4,0000.0,0004.23,0003.23,0003.01
2022-03-06 18:05:00,,0825.2,5.00,0.00,22.7,22.6,00.0,31.6,24.4,09.4,0000.0,0004.30,0003.27,0003.09
2022-03-06 18:06:00,,0825.2,5.00,0.00,22.6,22.4,00.0,31.6,24.3,09.4,0000.0,0004.31,0003.30,0003.15
2022-03-06 18:07:00,,0825.2,5.01,0.00,22.6,22.1,00.0,31.6,24.2,09.4,0000.0,0004.33,0003.33,0003.19
2022-03-06 18:08:00,,0825.2,4.99,0.00,22.5,22.0,00.0,31.5,24.2,09.5,0000.0,0004.44,0003.37,0003.23
2022-03-06 18:09:00,,0825.2,5.01,0.00,22.5,21.8,00.0,31.5,24.1,09.5,0000.0,0004.57,0003.41,0003.27
2022-03-06 18:10:00,,0825.3,4.99,0.00,22.5,21.7,00.0,31.5,24.1,09.6,0000.0,0004.37,0003.42,0003.29
2022-03-06 18:11:00,,0825.3,5.00,0.00,22.4,21.6,00.0,31.5,24.0,09.7,0000.0,0004.24,0003.44,0003.32
2022-03-06 18:12:00,,0825.3,5.01,0.00,22.4,21.9,00.0,31.5,24.1,09.7,0000.0,0004.21,0003.45,0003.35
2022-03-06 18:13:00,,0825.3,4.99,0.00,22.5,22.7,00.0,31.5,24.3,09.7,0000.0,0004.23,0003.47,0003.37
2022-03-06 18:14:00,,0825.3,5.00,0.00,22.7,23.4,00.0,31.6,24.6,09.7,0000.0,0004.18,0003.47,0003.39
2022-03-06 18:15:00,,0825.3,5.00,0.00,22.8,23.4,00.0,31.6,24.7,09.6,0000.0,0004.19,0003.49,0003.41
2022-03-06 18:16:00,,0825.3,5.00,0.00,22.8,23.1,00.0,31.6,24.6,09.7,0000.0,0004.26,0003.53,0003.45
2022-03-06 18:17:00,,0825.3,5.01,0.00,22.7,22.8,00.0,31.6,24.5,09.7,0000.0,0004.36,0003.57,0003.48
2022-03-06 18:18:00,,0825.3,5.01,0.00,22.7,22.5,00.0,31.6,24.5,09.7,0000.0,0004.45,0003.61,0003.51
2022-03-06 18:19:00,,0825.3,4.99,0.00,22.7,22.3,00.0,31.6,24.4,09.7,0000.0,0004.49,0003.65,0003.55
2022-03-06 18:20:00,,0825.3,5.00,0.00,22.7,22.1,00.0,31.6,24.3,09.7,0000.0,0004.41,0003.67,0003.59
2022-03-06 18:21:00,,0825.3,5.01,0.00,22.6,21.9,00.0,31.6,24.3,09.8,0000.0,0004.84,0003.71,0003.62
2022-03-06 18:22:00,,0825.3,5.00,0.00,22.6,21.8,00.0,31.6,24.2,09.9,0000.0,0006.74,0003.75,0003.64
2022-03-06 18:23:00,,0825.3,5.00,0.00,22.5,21.7,00.0,31.6,24.2,10.0,0000.0,0007.15,0003.80,0003.68
2022-03-06 18:24:00,,0825.3,4.99,0.00,22.5,21.6,00.0,31.6,24.1,10.0,0000.0,0007.23,0003.84,0003.71
2022-03-06 18:25:00,,0825.3,5.01,0.00,22.5,21.6,00.0,31.5,24.1,10.0,0000.0,0007.28,0003.87,0003.75
2022-03-06 18:26:00,,0825.3,4.99,0.00,22.4,21.5,00.0,31.5,24.1,09.9,0000.0,0007.36,0003.92,0003.79
2022-03-06 18:27:00,,0825.4,4.99,0.00,22.4,21.5,00.0,31.5,24.0,09.9,0000.0,0007.38,0003.94,0003.82
2022-03-06 18:28:00,,0825.4,5.00,0.00,22.4,21.8,00.0,31.5,24.1,09.9,0000.0,0007.38,0003.95,0003.82
2022-03-06 18:29:00,,0825.4,5.00,0.00,22.5,22.6,00.0,31.5,24.3,09.9,0000.0,0007.37,0003.95,0003.83
2022-03-06 18:30:00,,0825.3,5.00,0.00,22.7,23.1,00.0,31.6,24.6,09.9,0000.0,0007.39,0003.96,0003.83
2022-03-06 18:31:00,,0825.4,5.00,0.00,22.7,22.9,00.0,31.6,24.6,09.9,0000.0,0007.42,0003.96,0003.82
2022-03-06 18:32:00,,0825.4,5.00,0.00,22.7,22.6,00.0,31.6,24.5,09.9,0000.0,0007.27,0003.96,0003.82
2022-03-06 18:33:00,,0825.4,5.00,0.00,22.7,22.4,00.0,31.6,24.4,09.8,0000.0,0005.44,0003.95,0003.82
2022-03-06 18:34:00,,0825.4,5.00,0.00,22.6,22.2,00.0,31.6,24.4,09.9,0000.0,0005.06,0003.95,0003.81
2022-03-06 18:35:00,,0825.4,5.00,0.00,22.6,22.1,00.0,31.6,24.3,09.7,0000.0,0005.01,0003.93,0003.77
2022-03-06 18:36:00,,0825.3,5.00,0.00,22.6,22.0,00.0,31.6,24.2,09.7,0000.0,0004.97,0003.90,0003.75
2022-03-06 18:37:00,,0825.4,5.00,0.00,22.5,21.9,00.0,31.6,24.2,09.7,0000.0,0004.95,0003.88,0003.73
2022-03-06 18:38:00,,0825.3,5.00,0.00,22.5,21.8,00.0,31.5,24.1,09.7,0000.0,0004.99,0003.88,0003.72
2022-03-06 18:39:00,,0825.4,4.99,0.00,22.5,21.7,00.0,31.5,24.1,09.7,0000.0,0005.08,0003.90,0003.74
2022-03-06 18:40:00,,0825.4,5.00,0.00,22.4,21.7,00.0,31.5,24.1,09.7,0000.0,0005.21,0003.92,0003.75
2022-03-06 18:41:00,,0825.4,5.00,0.00,22.4,21.8,00.0,31.5,24.1,09.8,0000.0,0005.21,0003.93,0003.75
2022-03-06 18:42:00,,0825.4,5.00,0.00,22.5,22.5,00.0,31.5,24.3,09.9,0000.0,0005.18,0003.92,0003.76
2022-03-06 18:43:00,,0825.4,5.00,0.00,22.7,23.2,00.0,31.6,24.6,09.8,0000.0,0005.21,0003.93,0003.77
2022-03-06 18:44:00,,0825.3,4.99,0.00,22.7,23.0,00.0,31.6,24.7,09.7,0000.0,0005.21,0003.93,0003.78
2022-03-06 18:45:00,,0825.4,5.00,0.00,22.7,22.7,00.0,31.6,24.6,09.7,0000.0,0005.09,0003.91,0003.78
2022-03-06 18:46:00,,0825.4,5.00,0.00,22.7,22.4,00.0,31.6,24.5,09.8,0000.0,0005.05,0003.89,0003.77
2022-03-06 18:47:00,,0825.3,4.99,0.00,22.7,22.2,00.0,31.6,24.4,09.8,0000.0,0005.06,0003.89,0003.77
2022-03-06 18:48:00,,0825.4,5.01,0.00,22.7,22.0,00.0,31.6,24.4,09.9,0000.0,0005.09,0003.90,0003.77
2022-03-06 18:49:00,,0825.4,5.00,0.00,22.6,21.9,00.0,31.6,24.4,10.0,0000.0,0005.05,0003.89,0003.77
2022-03-06 18:50:00,,0825.3,4.99,0.00,22.6,21.8,00.0,31.6,24.3,09.9,0000.0,0004.92,0003.86,0003.75
2022-03-06 18:51:00,,0825.3,5.01,0.00,22.6,21.8,00.0,31.6,24.3,09.8,0000.0,0004.87,0003.83,0003.73
2022-03-06 18:52:00,,0825.3,5.00,0.00,22.6,21.8,00.0,31.6,24.3,09.8,0000.0,0005.04,0003.81,0003.70
2022-03-06 18:53:00,,0825.3,4.99,0.00,22.5,21.7,00.0,31.6,24.2,09.7,0000.0,0004.99,0003.77,0003.66
2022-03-06 18:54:00,,0825.3,5.00,0.00,22.5,21.7,00.0,31.5,24.2,09.6,0000.0,0004.91,0003.73,0003.61
2022-03-06 18:55:00,,0825.3,5.00,0.00,22.5,21.7,00.0,31.5,24.2,09.6,0000.0,0004.75,0003.66,0003.55
2022-03-06 18:56:00,,0825.3,4.99,0.00,22.5,21.6,00.0,31.5,24.2,09.9,0000.0,0004.61,0003.60,0003.50
2022-03-06 18:57:00,,0825.3,5.01,0.00,22.4,21.6,00.0,31.5,24.1,09.8,0000.0,0004.54,0003.56,0003.46
2022-03-06 18:58:00,,0825.3,5.00,0.00,22.4,21.6,00.0,31.5,24.1,09.5,0000.0,0004.45,0003.49,0003.39
2022-03-06 18:59:00,,0825.3,5.00,0.00,22.4,21.6,00.0,31.5,24.1,09.4,0000.0,0004.32,0003.42,0003.31
